Time,TemperatureF,DewpointF,PressureIn,WindDirection,WindDirectionDegrees,WindSpeedMPH,WindSpeedGustMPH,Humidity,HourlyPrecipIn,Conditions,Clouds,dailyrainin,SoftwareType,DateUTC
2013-02-04 00:02:00,35.0,30.0,26.81,NNW,341,11.0,13.0,81,0.00,,,-99.99,,2013-02-04 06:02:00,
2013-02-04 00:07:00,35.0,30.0,26.80,NNW,340,13.0,15.0,81,0.00,,,-99.99,,2013-02-04 06:07:00,
2013-02-04 00:12:00,35.0,30.0,26.81,NNW,343,12.0,14.0,81,0.00,,,-99.99,,2013-02-04 06:12:00,
2013-02-04 00:17:00,35.0,30.0,26.81,NNW,334,12.0,14.0,81,0.00,,,-99.99,,2013-02-04 06:17:00,
2013-02-04 00:22:00,35.0,30.0,26.81,NNW,331,13.0,15.0,81,0.00,,,-99.99,,2013-02-04 06:22:00,
2013-02-04 00:27:00,35.0,30.0,26.81,North,350,13.0,15.0,81,0.00,,,-99.99,,2013-02-04 06:27:00,
2013-02-04 00:32:00,35.0,30.0,26.81,NNW,341,13.0,15.0,81,0.00,,,-99.99,,2013-02-04 06:32:00,
2013-02-04 00:37:00,35.0,30.0,26.81,NNW,340,15.0,16.0,81,0.00,,,-99.99,,2013-02-04 06:37:00,
2013-02-04 00:42:00,35.0,30.0,26.81,NNW,343,13.0,16.0,81,0.00,,,-99.99,,2013-02-04 06:42:00,
2013-02-04 00:47:00,35.0,30.0,26.82,NNW,344,12.0,15.0,81,0.00,,,-99.99,,2013-02-04 06:47:00,
2013-02-04 00:52:00,34.0,28.0,26.82,NNW,336,13.0,15.0,81,0.00,,,-99.99,,2013-02-04 06:52:00,
2013-02-04 00:57:00,34.0,28.0,26.82,NNW,340,13.0,14.0,81,0.00,,,-99.99,,2013-02-04 06:57:00,
2013-02-04 01:02:00,34.0,28.0,26.82,NNW,343,14.0,15.0,81,0.00,,,-99.99,,2013-02-04 07:02:00,
2013-02-04 01:07:00,34.0,28.0,26.82,NNW,343,13.0,15.0,81,0.00,,,-99.99,,2013-02-04 07:07:00,
2013-02-04 01:12:00,34.0,28.0,26.82,NNW,348,12.0,15.0,82,0.00,,,-99.99,,2013-02-04 07:12:00,
2013-02-04 01:17:00,34.0,28.0,26.82,NNW,347,12.0,14.0,82,0.00,,,-99.99,,2013-02-04 07:17:00,
2013-02-04 01:22:00,34.0,28.0,26.82,North,351,12.0,13.0,82,0.00,,,-99.99,,2013-02-04 07:22:00,
2013-02-04 01:27:00,33.0,28.0,26.82,NNW,344,11.0,12.0,83,0.00,,,-99.99,,2013-02-04 07:27:00,
2013-02-04 01:32:00,33.0,28.0,26.82,NNW,340,11.0,13.0,83,0.00,,,-99.99,,2013-02-04 07:32:00,
2013-02-04 01:37:00,33.0,28.0,26.82,NNW,338,12.0,12.0,84,0.00,,,-99.99,,2013-02-04 07:37:00,
2013-02-04 01:42:00,32.0,28.0,26.82,NNW,336,11.0,12.0,84,0.00,,,-99.99,,2013-02-04 07:42:00,
2013-02-04 01:47:00,32.0,28.0,26.82,NNW,338,12.0,13.0,85,0.00,,,-99.99,,2013-02-04 07:47:00,
2013-02-04 01:52:00,31.0,27.0,26.83,NNW,343,12.0,14.0,85,0.00,,,-99.99,,2013-02-04 07:52:00,
2013-02-04 01:57:00,31.0,27.0,26.83,NNW,345,12.0,14.0,85,0.00,,,-99.99,,2013-02-04 07:57:00,
2013-02-04 02:02:00,31.0,27.0,26.83,NNW,343,13.0,14.0,86,0.00,,,-99.99,,2013-02-04 08:02:00,
2013-02-04 02:07:00,31.0,27.0,26.83,NNW,344,12.0,14.0,86,0.00,,,-99.99,,2013-02-04 08:07:00,
2013-02-04 02:12:00,32.0,28.0,26.84,NNW,341,13.0,14.0,86,0.00,,,-99.99,,2013-02-04 08:12:00,
2013-02-04 02:17:00,32.0,28.0,26.84,NNW,345,13.0,14.0,86,0.00,,,-99.99,,2013-02-04 08:17:00,
2013-02-04 02:22:00,32.0,28.0,26.84,NNW,341,12.0,14.0,86,0.00,,,-99.99,,2013-02-04 08:22:00,
2013-02-04 02:27:00,32.0,28.0,26.85,NNW,340,13.0,15.0,86,0.00,,,-99.99,,2013-02-04 08:27:00,
2013-02-04 02:32:00,32.0,28.0,26.85,NNW,344,13.0,14.0,85,0.00,,,-99.99,,2013-02-04 08:32:00,
2013-02-04 02:37:00,32.0,28.0,26.85,NNW,347,13.0,14.0,86,0.00,,,-99.99,,2013-02-04 08:37:00,
2013-02-04 02:42:00,32.0,28.0,26.86,NNW,341,11.0,14.0,86,0.00,,,-99.99,,2013-02-04 08:42:00,
2013-02-04 02:47:00,31.0,27.0,26.86,NNW,348,11.0,13.0,86,0.00,,,-99.99,,2013-02-04 08:47:00,
2013-02-04 02:52:00,31.0,28.0,26.86,North,353,11.0,13.0,87,0.00,,,-99.99,,2013-02-04 08:52:00,
2013-02-04 02:57:00,31.0,28.0,26.86,North,350,9.0,10.0,87,0.00,,,-99.99,,2013-02-04 08:57:00,
2013-02-04 03:02:00,31.0,28.0,26.86,NNW,348,9.0,11.0,87,0.00,,,-99.99,,2013-02-04 09:02:00,
2013-02-04 03:07:00,31.0,28.0,26.86,NNW,347,10.0,10.0,87,0.00,,,-99.99,,2013-02-04 09:07:00,
2013-02-04 03:12:00,31.0,28.0,26.87,NNW,336,11.0,12.0,87,0.00,,,-99.99,,2013-02-04 09:12:00,
2013-02-04 03:17:00,31.0,28.0,26.86,NNW,341,12.0,13.0,88,0.00,,,-99.99,,2013-02-04 09:17:00,
2013-02-04 03:22:00,31.0,28.0,26.86,NNW,330,13.0,14.0,88,0.00,,,-99.99,,2013-02-04 09:22:00,
2013-02-04 03:27:00,31.0,28.0,26.87,NNW,340,12.0,13.0,88,0.00,,,-99.99,,2013-02-04 09:27:00,
2013-02-04 03:32:00,31.0,28.0,26.87,NNW,331,12.0,13.0,88,0.00,,,-99.99,,2013-02-04 09:32:00,
2013-02-04 03:37:00,31.0,28.0,26.87,NNW,341,11.0,13.0,88,0.00,,,-99.99,,2013-02-04 09:37:00,
2013-02-04 03:42:00,31.0,28.0,26.87,NNW,336,12.0,13.0,88,0.00,,,-99.99,,2013-02-04 09:42:00,
2013-02-04 03:47:00,31.0,28.0,26.87,NNW,337,11.0,13.0,89,0.00,,,-99.99,,2013-02-04 09:47:00,
2013-02-04 03:52:00,31.0,28.0,26.87,NNW,331,12.0,13.0,89,0.00,,,-99.99,,2013-02-04 09:52:00,
2013-02-04 03:57:00,31.0,28.0,26.88,NNW,327,11.0,12.0,89,0.00,,,-99.99,,2013-02-04 09:57:00,
2013-02-04 04:02:00,30.0,27.0,26.87,NW,312,10.0,11.0,89,0.00,,,-99.99,,2013-02-04 10:02:00,
2013-02-04 04:07:00,30.0,27.0,26.87,NW,320,11.0,13.0,89,0.00,,,-99.99,,2013-02-04 10:07:00,
2013-02-04 04:12:00,30.0,27.0,26.87,NW,324,12.0,13.0,90,0.00,,,-99.99,,2013-02-04 10:12:00,
2013-02-04 04:17:00,30.0,27.0,26.87,NW,321,11.0,12.0,90,0.00,,,-99.99,,2013-02-04 10:17:00,
2013-02-04 04:22:00,30.0,27.0,26.88,NW,323,12.0,12.0,90,0.00,,,-99.99,,2013-02-04 10:22:00,
2013-02-04 04:27:00,30.0,27.0,26.88,NW,320,12.0,13.0,90,0.00,,,-99.99,,2013-02-04 10:27:00,
2013-02-04 04:32:00,30.0,27.0,26.87,NW,323,12.0,14.0,90,0.00,,,-99.99,,2013-02-04 10:32:00,
2013-02-04 04:37:00,30.0,27.0,26.88,NW,321,12.0,14.0,90,0.00,,,-99.99,,2013-02-04 10:37:00,
2013-02-04 04:42:00,30.0,27.0,26.88,NW,323,12.0,14.0,90,0.00,,,-99.99,,2013-02-04 10:42:00,
2013-02-04 04:47:00,30.0,27.0,26.87,NW,317,12.0,14.0,90,0.00,,,-99.99,,2013-02-04 10:47:00,
2013-02-04 04:52:00,30.0,27.0,26.88,NW,316,13.0,14.0,90,0.00,,,-99.99,,2013-02-04 10:52:00,
2013-02-04 04:57:00,30.0,27.0,26.88,NW,321,12.0,14.0,90,0.00,,,-99.99,,2013-02-04 10:57:00,
2013-02-04 05:02:00,29.0,27.0,26.88,NW,321,13.0,15.0,90,0.00,,,-99.99,,2013-02-04 11:02:00,
2013-02-04 05:07:00,30.0,27.0,26.88,NW,324,13.0,14.0,90,0.00,,,-99.99,,2013-02-04 11:07:00,
2013-02-04 05:12:00,30.0,27.0,26.88,NW,323,13.0,14.0,90,0.00,,,-99.99,,2013-02-04 11:12:00,
2013-02-04 05:17:00,30.0,28.0,26.88,NW,316,13.0,14.0,91,0.00,,,-99.99,,2013-02-04 11:17:00,
2013-02-04 05:22:00,30.0,28.0,26.88,NNW,334,12.0,13.0,91,0.00,,,-99.99,,2013-02-04 11:22:00,
2013-02-04 05:27:00,29.0,27.0,26.88,NNW,331,12.0,13.0,91,0.00,,,-99.99,,2013-02-04 11:27:00,
2013-02-04 05:32:00,29.0,27.0,26.88,NNW,327,11.0,12.0,91,0.00,,,-99.99,,2013-02-04 11:32:00,
2013-02-04 05:37:00,29.0,27.0,26.88,NNW,331,11.0,12.0,91,0.00,,,-99.99,,2013-02-04 11:37:00,
2013-02-04 05:42:00,29.0,27.0,26.88,NNW,331,10.0,11.0,91,0.00,,,-99.99,,2013-02-04 11:42:00,
2013-02-04 05:47:00,29.0,27.0,26.88,NNW,330,11.0,12.0,91,0.00,,,-99.99,,2013-02-04 11:47:00,
2013-02-04 05:52:00,28.0,27.0,26.89,NNW,329,11.0,12.0,91,0.00,,,-99.99,,2013-02-04 11:52:00,
2013-02-04 05:57:00,28.0,27.0,26.89,NNW,327,10.0,10.0,91,0.00,,,-99.99,,2013-02-04 11:57:00,
2013-02-04 06:02:00,28.0,27.0,26.89,NW,324,9.0,10.0,92,0.00,,,-99.99,,2013-02-04 12:02:00,
2013-02-04 06:07:00,28.0,27.0,26.89,NW,321,8.0,9.0,92,0.00,,,-99.99,,2013-02-04 12:07:00,
2013-02-04 06:12:00,28.0,27.0,26.89,NW,317,9.0,10.0,92,0.00,,,-99.99,,2013-02-04 12:12:00,
2013-02-04 06:17:00,29.0,27.0,26.89,NW,317,9.0,10.0,92,0.00,,,-99.99,,2013-02-04 12:17:00,
2013-02-04 06:22:00,29.0,27.0,26.89,NW,317,9.0,10.0,92,0.00,,,-99.99,,2013-02-04 12:22:00,
2013-02-04 06:27:00,29.0,27.0,26.89,NW,316,8.0,8.0,91,0.00,,,-99.99,,2013-02-04 12:27:00,
2013-02-04 06:32:00,28.0,27.0,26.90,NW,306,7.0,8.0,91,0.00,,,-99.99,,2013-02-04 12:32:00,
2013-02-04 06:37:00,28.0,27.0,26.89,NW,309,7.0,8.0,91,0.00,,,-99.99,,2013-02-04 12:37:00,
2013-02-04 06:42:00,27.0,25.0,26.89,NW,320,8.0,8.0,91,0.00,,,-99.99,,2013-02-04 12:42:00,
2013-02-04 06:47:00,27.0,25.0,26.89,NW,324,8.0,9.0,92,0.00,,,-99.99,,2013-02-04 12:47:00,
2013-02-04 06:52:00,27.0,25.0,26.89,NW,323,9.0,9.0,92,0.00,,,-99.99,,2013-02-04 12:52:00,
2013-02-04 06:57:00,27.0,25.0,26.89,NW,320,9.0,10.0,92,0.00,,,-99.99,,2013-02-04 12:57:00,
2013-02-04 07:02:00,27.0,25.0,26.90,NW,319,9.0,9.0,92,0.00,,,-99.99,,2013-02-04 13:02:00,
2013-02-04 07:07:00,27.0,25.0,26.89,NW,321,7.0,8.0,92,0.00,,,-99.99,,2013-02-04 13:07:00,
2013-02-04 07:12:00,27.0,25.0,26.89,NW,326,7.0,8.0,92,0.00,,,-99.99,,2013-02-04 13:12:00,
2013-02-04 07:17:00,27.0,25.0,26.89,NW,313,6.0,7.0,92,0.00,,,-99.99,,2013-02-04 13:17:00,
2013-02-04 07:22:00,27.0,25.0,26.90,NW,310,6.0,7.0,92,0.00,,,-99.99,,2013-02-04 13:22:00,
2013-02-04 07:27:00,26.0,25.0,26.90,SW,228,4.0,6.0,92,0.00,,,-99.99,,2013-02-04 13:27:00,
2013-02-04 07:32:00,25.0,23.0,26.90,WSW,247,5.0,6.0,92,0.00,,,-99.99,,2013-02-04 13:32:00,
2013-02-04 07:37:00,24.0,21.0,26.90,WSW,255,6.0,7.0,92,0.00,,,-99.99,,2013-02-04 13:37:00,
2013-02-04 07:42:00,25.0,23.0,26.90,West,281,8.0,9.0,93,0.00,,,-99.99,,2013-02-04 13:42:00,
2013-02-04 07:47:00,25.0,23.0,26.90,West,281,7.0,9.0,93,0.00,,,-99.99,,2013-02-04 13:47:00,
2013-02-04 07:52:00,25.0,23.0,26.91,West,272,6.0,9.0,93,0.00,,,-99.99,,2013-02-04 13:52:00,
2013-02-04 07:57:00,24.0,23.0,26.91,West,275,6.0,8.0,93,0.00,,,-99.99,,2013-02-04 13:57:00,
2013-02-04 08:02:00,24.0,23.0,26.91,West,272,7.0,9.0,93,0.00,,,-99.99,,2013-02-04 14:02:00,
2013-02-04 08:07:00,25.0,23.0,26.91,WNW,285,7.0,9.0,93,0.00,,,-99.99,,2013-02-04 14:07:00,
2013-02-04 08:12:00,25.0,23.0,26.91,WNW,292,6.0,8.0,93,0.00,,,-99.99,,2013-02-04 14:12:00,
2013-02-04 08:17:00,26.0,25.0,26.91,WNW,290,5.0,7.0,93,0.00,,,-99.99,,2013-02-04 14:17:00,
2013-02-04 08:22:00,26.0,25.0,26.91,West,278,5.0,6.0,93,0.00,,,-99.99,,2013-02-04 14:22:00,
2013-02-04 08:27:00,27.0,25.0,26.90,West,278,6.0,8.0,93,0.00,,,-99.99,,2013-02-04 14:27:00,
2013-02-04 08:32:00,27.0,25.0,26.90,WNW,283,5.0,7.0,92,0.00,,,-99.99,,2013-02-04 14:32:00,
2013-02-04 08:37:00,28.0,27.0,26.90,WNW,292,6.0,8.0,92,0.00,,,-99.99,,2013-02-04 14:37:00,
2013-02-04 08:42:00,29.0,27.0,26.90,WNW,298,8.0,10.0,92,0.00,,,-99.99,,2013-02-04 14:42:00,
2013-02-04 08:47:00,30.0,28.0,26.91,WNW,293,8.0,10.0,92,0.00,,,-99.99,,2013-02-04 14:47:00,
2013-02-04 08:52:00,31.0,28.0,26.90,WNW,295,8.0,10.0,92,0.00,,,-99.99,,2013-02-04 14:52:00,
2013-02-04 08:57:00,31.0,28.0,26.91,WNW,295,8.0,10.0,91,0.00,,,-99.99,,2013-02-04 14:57:00,
2013-02-04 09:02:00,32.0,30.0,26.91,WNW,300,8.0,9.0,91,0.00,,,-99.99,,2013-02-04 15:02:00,
2013-02-04 09:07:00,33.0,30.0,26.91,NW,306,8.0,9.0,91,0.00,,,-99.99,,2013-02-04 15:07:00,
2013-02-04 09:12:00,34.0,32.0,26.91,NW,309,7.0,8.0,90,0.00,,,-99.99,,2013-02-04 15:12:00,
2013-02-04 09:17:00,35.0,32.0,26.91,NW,313,7.0,8.0,90,0.00,,,-99.99,,2013-02-04 15:17:00,
2013-02-04 09:22:00,35.0,32.0,26.91,WNW,302,7.0,7.0,90,0.00,,,-99.99,,2013-02-04 15:22:00,
2013-02-04 09:27:00,36.0,34.0,26.91,NW,316,6.0,8.0,89,0.00,,,-99.99,,2013-02-04 15:27:00,
2013-02-04 09:32:00,37.0,34.0,26.91,NW,312,6.0,7.0,88,0.00,,,-99.99,,2013-02-04 15:32:00,
2013-02-04 09:37:00,37.0,34.0,26.91,NW,312,6.0,6.0,87,0.00,,,-99.99,,2013-02-04 15:37:00,
2013-02-04 09:42:00,37.0,34.0,26.91,NW,314,5.0,6.0,86,0.00,,,-99.99,,2013-02-04 15:42:00,
2013-02-04 09:47:00,38.0,34.0,26.91,NNW,330,6.0,8.0,85,0.00,,,-99.99,,2013-02-04 15:47:00,
2013-02-04 09:52:00,38.0,34.0,26.91,NW,326,7.0,7.0,84,0.00,,,-99.99,,2013-02-04 15:52:00,
2013-02-04 09:57:00,39.0,34.0,26.91,NNW,336,7.0,8.0,83,0.00,,,-99.99,,2013-02-04 15:57:00,
2013-02-04 10:02:00,39.0,34.0,26.91,NNW,330,7.0,8.0,82,0.00,,,-99.99,,2013-02-04 16:02:00,
2013-02-04 10:07:00,39.0,34.0,26.91,NW,317,7.0,7.0,81,0.00,,,-99.99,,2013-02-04 16:07:00,
2013-02-04 10:12:00,39.0,34.0,26.91,NNW,329,6.0,7.0,81,0.00,,,-99.99,,2013-02-04 16:12:00,
2013-02-04 10:17:00,40.0,34.0,26.91,NW,320,6.0,6.0,80,0.00,,,-99.99,,2013-02-04 16:17:00,
2013-02-04 10:22:00,40.0,34.0,26.91,WNW,303,5.0,7.0,80,0.00,,,-99.99,,2013-02-04 16:22:00,
2013-02-04 10:27:00,41.0,36.0,26.91,NW,307,5.0,6.0,79,0.00,,,-99.99,,2013-02-04 16:27:00,
2013-02-04 10:32:00,41.0,34.0,26.91,NW,310,5.0,6.0,78,0.00,,,-99.99,,2013-02-04 16:32:00,
2013-02-04 10:37:00,42.0,36.0,26.91,NW,312,5.0,6.0,77,0.00,,,-99.99,,2013-02-04 16:37:00,
2013-02-04 10:42:00,42.0,36.0,26.91,NW,306,5.0,7.0,76,0.00,,,-99.99,,2013-02-04 16:42:00,
2013-02-04 10:47:00,43.0,36.0,26.90,WSW,238,5.0,7.0,76,0.00,,,-99.99,,2013-02-04 16:47:00,
2013-02-04 10:52:00,43.0,36.0,26.90,SW,214,6.0,7.0,75,0.00,,,-99.99,,2013-02-04 16:52:00,
2013-02-04 10:57:00,44.0,36.0,26.91,WSW,245,7.0,8.0,74,0.00,,,-99.99,,2013-02-04 16:57:00,
2013-02-04 11:02:00,44.0,36.0,26.90,WSW,251,5.0,7.0,73,0.00,,,-99.99,,2013-02-04 17:02:00,
2013-02-04 11:07:00,44.0,36.0,26.90,WSW,252,7.0,9.0,72,0.00,,,-99.99,,2013-02-04 17:07:00,
2013-02-04 11:12:00,44.0,36.0,26.90,WSW,243,6.0,8.0,72,0.00,,,-99.99,,2013-02-04 17:12:00,
2013-02-04 11:17:00,44.0,36.0,26.90,WSW,251,7.0,9.0,72,0.00,,,-99.99,,2013-02-04 17:17:00,
2013-02-04 11:22:00,45.0,36.0,26.90,WSW,243,7.0,9.0,71,0.00,,,-99.99,,2013-02-04 17:22:00,
2013-02-04 11:27:00,45.0,36.0,26.90,SW,233,6.0,7.0,71,0.00,,,-99.99,,2013-02-04 17:27:00,
2013-02-04 11:32:00,45.0,36.0,26.90,SSW,210,5.0,8.0,71,0.00,,,-99.99,,2013-02-04 17:32:00,
2013-02-04 11:37:00,45.0,36.0,26.90,WSW,237,6.0,7.0,69,0.00,,,-99.99,,2013-02-04 17:37:00,
2013-02-04 11:42:00,45.0,36.0,26.90,WSW,243,3.0,6.0,69,0.00,,,-99.99,,2013-02-04 17:42:00,
2013-02-04 11:47:00,46.0,36.0,26.89,SW,234,5.0,7.0,69,0.00,,,-99.99,,2013-02-04 17:47:00,
2013-02-04 11:52:00,46.0,36.0,26.89,SW,234,5.0,7.0,68,0.00,,,-99.99,,2013-02-04 17:52:00,
2013-02-04 11:57:00,47.0,37.0,26.89,WSW,241,3.0,5.0,67,0.00,,,-99.99,,2013-02-04 17:57:00,
2013-02-04 12:02:00,48.0,37.0,26.88,South,176,7.0,12.0,66,0.00,,,-99.99,,2013-02-04 18:02:00,
2013-02-04 12:07:00,48.0,37.0,26.88,SW,235,6.0,7.0,65,0.00,,,-99.99,,2013-02-04 18:07:00,
2013-02-04 12:12:00,49.0,37.0,26.88,WSW,258,6.0,6.0,64,0.00,,,-99.99,,2013-02-04 18:12:00,
2013-02-04 12:17:00,48.0,36.0,26.88,WSW,255,5.0,7.0,63,0.00,,,-99.99,,2013-02-04 18:17:00,
2013-02-04 12:22:00,49.0,37.0,26.87,South,183,6.0,8.0,63,0.00,,,-99.99,,2013-02-04 18:22:00,
2013-02-04 12:27:00,50.0,37.0,26.86,South,180,6.0,9.0,62,0.00,,,-99.99,,2013-02-04 18:27:00,
2013-02-04 12:32:00,50.0,37.0,26.86,South,185,6.0,8.0,61,0.00,,,-99.99,,2013-02-04 18:32:00,
2013-02-04 12:37:00,49.0,36.0,26.86,WSW,257,5.0,7.0,60,0.00,,,-99.99,,2013-02-04 18:37:00,
2013-02-04 12:42:00,49.0,36.0,26.86,SW,220,4.0,6.0,60,0.00,,,-99.99,,2013-02-04 18:42:00,
2013-02-04 12:47:00,49.0,36.0,26.86,SSW,210,6.0,7.0,61,0.00,,,-99.99,,2013-02-04 18:47:00,
2013-02-04 12:52:00,49.0,36.0,26.86,West,265,7.0,9.0,61,0.00,,,-99.99,,2013-02-04 18:52:00,
2013-02-04 12:57:00,49.0,36.0,26.86,SSW,200,6.0,8.0,60,0.00,,,-99.99,,2013-02-04 18:57:00,
2013-02-04 13:02:00,50.0,37.0,26.85,WSW,241,6.0,8.0,60,0.00,,,-99.99,,2013-02-04 19:02:00,
2013-02-04 13:07:00,50.0,37.0,26.85,SSW,199,6.0,8.0,60,0.00,,,-99.99,,2013-02-04 19:07:00,
2013-02-04 13:12:00,51.0,37.0,26.84,SW,220,7.0,9.0,59,0.00,,,-99.99,,2013-02-04 19:12:00,
2013-02-04 13:17:00,52.0,37.0,26.84,SW,224,9.0,11.0,58,0.00,,,-99.99,,2013-02-04 19:17:00,
2013-02-04 13:22:00,52.0,37.0,26.84,SW,220,8.0,10.0,57,0.00,,,-99.99,,2013-02-04 19:22:00,
2013-02-04 13:27:00,52.0,37.0,26.83,WSW,248,10.0,12.0,56,0.00,,,-99.99,,2013-02-04 19:27:00,
2013-02-04 13:32:00,52.0,37.0,26.83,WSW,244,8.0,11.0,56,0.00,,,-99.99,,2013-02-04 19:32:00,
2013-02-04 13:37:00,53.0,37.0,26.82,WSW,251,9.0,11.0,55,0.00,,,-99.99,,2013-02-04 19:37:00,
2013-02-04 13:42:00,53.0,37.0,26.82,SSW,212,8.0,10.0,55,0.00,,,-99.99,,2013-02-04 19:42:00,
2013-02-04 13:47:00,53.0,37.0,26.82,SW,234,8.0,12.0,54,0.00,,,-99.99,,2013-02-04 19:47:00,
2013-02-04 13:52:00,53.0,37.0,26.81,SW,233,9.0,11.0,54,0.00,,,-99.99,,2013-02-04 19:52:00,
2013-02-04 13:57:00,53.0,36.0,26.81,WSW,248,9.0,13.0,53,0.00,,,-99.99,,2013-02-04 19:57:00,
2013-02-04 14:02:00,53.0,36.0,26.81,SSW,213,8.0,11.0,53,0.00,,,-99.99,,2013-02-04 20:02:00,
2013-02-04 14:07:00,54.0,37.0,26.81,SW,214,10.0,12.0,53,0.00,,,-99.99,,2013-02-04 20:07:00,
2013-02-04 14:12:00,55.0,37.0,26.81,SW,228,7.0,10.0,52,0.00,,,-99.99,,2013-02-04 20:12:00,
2013-02-04 14:17:00,55.0,37.0,26.81,SW,235,9.0,12.0,51,0.00,,,-99.99,,2013-02-04 20:17:00,
2013-02-04 14:27:00,55.0,37.0,26.80,WSW,252,10.0,13.0,50,0.00,,,-99.99,,2013-02-04 20:27:00,
2013-02-04 14:32:00,55.0,37.0,26.80,WSW,238,11.0,15.0,50,0.00,,,-99.99,,2013-02-04 20:32:00,
2013-02-04 14:42:00,56.0,37.0,26.79,SW,221,8.0,12.0,49,0.00,,,-99.99,,2013-02-04 20:42:00,
2013-02-04 14:47:00,56.0,37.0,26.79,WSW,240,9.0,12.0,49,0.00,,,-99.99,,2013-02-04 20:47:00,
2013-02-04 14:57:00,56.0,36.0,26.79,WSW,247,9.0,13.0,46,0.00,,,-99.99,,2013-02-04 20:57:00,
2013-02-04 15:02:00,56.0,36.0,26.78,WSW,238,8.0,11.0,46,0.00,,,-99.99,,2013-02-04 21:02:00,
2013-02-04 15:07:00,56.0,36.0,26.78,WSW,257,8.0,11.0,45,0.00,,,-99.99,,2013-02-04 21:07:00,
2013-02-04 15:12:00,57.0,36.0,26.78,WSW,241,8.0,11.0,45,0.00,,,-99.99,,2013-02-04 21:12:00,
2013-02-04 15:17:00,56.0,34.0,26.78,WNW,283,10.0,16.0,44,0.00,,,-99.99,,2013-02-04 21:17:00,
2013-02-04 15:22:00,56.0,34.0,26.78,West,265,9.0,11.0,44,0.00,,,-99.99,,2013-02-04 21:22:00,
2013-02-04 15:27:00,56.0,34.0,26.78,West,262,11.0,12.0,43,0.00,,,-99.99,,2013-02-04 21:27:00,
2013-02-04 15:32:00,56.0,34.0,26.78,WSW,251,9.0,12.0,44,0.00,,,-99.99,,2013-02-04 21:32:00,
2013-02-04 15:37:00,57.0,36.0,26.78,WSW,247,9.0,12.0,43,0.00,,,-99.99,,2013-02-04 21:37:00,
2013-02-04 15:42:00,57.0,36.0,26.78,West,266,9.0,11.0,43,0.00,,,-99.99,,2013-02-04 21:42:00,
2013-02-04 15:47:00,57.0,36.0,26.78,West,261,11.0,15.0,44,0.00,,,-99.99,,2013-02-04 21:47:00,
2013-02-04 15:57:00,57.0,36.0,26.78,West,276,9.0,13.0,43,0.00,,,-99.99,,2013-02-04 21:57:00,
2013-02-04 16:02:00,57.0,34.0,26.77,West,278,8.0,11.0,42,0.00,,,-99.99,,2013-02-04 22:02:00,
2013-02-04 16:07:00,57.0,36.0,26.77,West,261,7.0,10.0,43,0.00,,,-99.99,,2013-02-04 22:07:00,
2013-02-04 16:12:00,57.0,36.0,26.77,WSW,240,7.0,9.0,43,0.00,,,-99.99,,2013-02-04 22:12:00,
2013-02-04 16:17:00,57.0,36.0,26.77,SW,234,7.0,9.0,43,0.00,,,-99.99,,2013-02-04 22:17:00,
2013-02-04 16:22:00,57.0,34.0,26.77,WSW,252,5.0,7.0,42,0.00,,,-99.99,,2013-02-04 22:22:00,
2013-02-04 16:27:00,57.0,34.0,26.77,West,269,2.0,5.0,42,0.00,,,-99.99,,2013-02-04 22:27:00,
2013-02-04 16:32:00,57.0,34.0,26.77,WSW,237,5.0,7.0,42,0.00,,,-99.99,,2013-02-04 22:32:00,
2013-02-04 16:37:00,58.0,36.0,26.76,SW,234,6.0,7.0,42,0.00,,,-99.99,,2013-02-04 22:37:00,
2013-02-04 16:42:00,58.0,34.0,26.76,SW,235,5.0,6.0,41,0.00,,,-99.99,,2013-02-04 22:42:00,
2013-02-04 16:47:00,59.0,36.0,26.76,WSW,251,2.0,4.0,41,0.00,,,-99.99,,2013-02-04 22:47:00,
2013-02-04 16:52:00,58.0,34.0,26.76,WSW,248,6.0,8.0,41,0.00,,,-99.99,,2013-02-04 22:52:00,
2013-02-04 16:57:00,58.0,34.0,26.76,WSW,241,7.0,8.0,41,0.00,,,-99.99,,2013-02-04 22:57:00,
2013-02-04 17:02:00,58.0,34.0,26.76,WSW,240,6.0,7.0,41,0.00,,,-99.99,,2013-02-04 23:02:00,
2013-02-04 17:07:00,57.0,34.0,26.76,SW,227,5.0,7.0,42,0.00,,,-99.99,,2013-02-04 23:07:00,
2013-02-04 17:12:00,57.0,34.0,26.75,SW,226,5.0,6.0,42,0.00,,,-99.99,,2013-02-04 23:12:00,
2013-02-04 17:17:00,57.0,34.0,26.75,SSW,206,4.0,5.0,42,0.00,,,-99.99,,2013-02-04 23:17:00,
2013-02-04 17:22:00,57.0,36.0,26.75,SW,221,4.0,5.0,43,0.00,,,-99.99,,2013-02-04 23:22:00,
2013-02-04 17:27:00,56.0,34.0,26.75,SW,224,4.0,4.0,43,0.00,,,-99.99,,2013-02-04 23:27:00,
2013-02-04 17:32:00,56.0,34.0,26.75,SW,223,4.0,4.0,44,0.00,,,-99.99,,2013-02-04 23:32:00,
2013-02-04 17:37:00,56.0,34.0,26.75,North,0,0.0,0.0,44,0.00,,,-99.99,,2013-02-04 23:37:00,
2013-02-04 17:42:00,56.0,34.0,26.75,North,0,0.0,0.0,44,0.00,,,-99.99,,2013-02-04 23:42:00,
2013-02-04 17:47:00,56.0,34.0,26.75,North,0,0.0,0.0,44,0.00,,,-99.99,,2013-02-04 23:47:00,
2013-02-04 17:52:00,55.0,34.0,26.75,North,0,0.0,0.0,44,0.00,,,-99.99,,2013-02-04 23:52:00,
2013-02-04 17:57:00,55.0,34.0,26.75,North,0,0.0,0.0,44,0.00,,,-99.99,,2013-02-04 23:57:00,
2013-02-04 18:02:00,54.0,32.0,26.75,North,0,0.0,0.0,44,0.00,,,-99.99,,2013-02-05 00:02:00,
2013-02-04 18:07:00,53.0,32.0,26.75,North,0,0.0,0.0,45,0.00,,,-99.99,,2013-02-05 00:07:00,
2013-02-04 18:12:00,53.0,32.0,26.75,North,0,0.0,0.0,46,0.00,,,-99.99,,2013-02-05 00:12:00,
2013-02-04 18:17:00,52.0,32.0,26.76,North,0,0.0,0.0,46,0.00,,,-99.99,,2013-02-05 00:17:00,
2013-02-04 18:22:00,50.0,30.0,26.75,South,175,6.0,6.0,47,0.00,,,-99.99,,2013-02-05 00:22:00,
2013-02-04 18:27:00,49.0,30.0,26.75,South,176,7.0,7.0,48,0.00,,,-99.99,,2013-02-05 00:27:00,
2013-02-04 18:32:00,48.0,30.0,26.75,SSE,165,6.0,6.0,50,0.00,,,-99.99,,2013-02-05 00:32:00,
2013-02-04 18:37:00,47.0,30.0,26.76,South,175,7.0,7.0,51,0.00,,,-99.99,,2013-02-05 00:37:00,
2013-02-04 18:42:00,47.0,30.0,26.76,South,176,7.0,8.0,51,0.00,,,-99.99,,2013-02-05 00:42:00,
2013-02-04 18:47:00,47.0,30.0,26.76,South,173,7.0,7.0,51,0.00,,,-99.99,,2013-02-05 00:47:00,
2013-02-04 18:52:00,46.0,30.0,26.76,South,175,6.0,6.0,52,0.00,,,-99.99,,2013-02-05 00:52:00,
2013-02-04 18:57:00,46.0,30.0,26.76,SSE,165,6.0,6.0,52,0.00,,,-99.99,,2013-02-05 00:57:00,
2013-02-04 19:02:00,46.0,30.0,26.76,South,169,6.0,7.0,52,0.00,,,-99.99,,2013-02-05 01:02:00,
2013-02-04 19:07:00,46.0,30.0,26.76,South,169,7.0,7.0,52,0.00,,,-99.99,,2013-02-05 01:07:00,
2013-02-04 19:12:00,45.0,28.0,26.76,SSE,166,6.0,7.0,53,0.00,,,-99.99,,2013-02-05 01:12:00,
2013-02-04 19:17:00,45.0,28.0,26.76,SSE,165,8.0,8.0,53,0.00,,,-99.99,,2013-02-05 01:17:00,
2013-02-04 19:22:00,44.0,28.0,26.76,South,169,8.0,8.0,54,0.00,,,-99.99,,2013-02-05 01:22:00,
2013-02-04 19:27:00,43.0,28.0,26.76,South,178,7.0,7.0,55,0.00,,,-99.99,,2013-02-05 01:27:00,
2013-02-04 19:32:00,43.0,28.0,26.77,South,179,7.0,8.0,56,0.00,,,-99.99,,2013-02-05 01:32:00,
2013-02-04 19:37:00,42.0,28.0,26.77,South,175,8.0,8.0,57,0.00,,,-99.99,,2013-02-05 01:37:00,
2013-02-04 19:42:00,42.0,28.0,26.77,South,180,6.0,6.0,57,0.00,,,-99.99,,2013-02-05 01:42:00,
2013-02-04 19:47:00,42.0,28.0,26.77,South,182,5.0,5.0,58,0.00,,,-99.99,,2013-02-05 01:47:00,
2013-02-04 19:52:00,43.0,28.0,26.77,South,185,5.0,6.0,57,0.00,,,-99.99,,2013-02-05 01:52:00,
2013-02-04 19:57:00,43.0,28.0,26.77,South,189,5.0,6.0,57,0.00,,,-99.99,,2013-02-05 01:57:00,
2013-02-04 20:02:00,44.0,30.0,26.77,SSW,196,5.0,5.0,56,0.00,,,-99.99,,2013-02-05 02:02:00,
2013-02-04 20:07:00,44.0,30.0,26.77,SSW,200,4.0,5.0,56,0.00,,,-99.99,,2013-02-05 02:07:00,
2013-02-04 20:12:00,44.0,30.0,26.77,SSW,197,3.0,4.0,56,0.00,,,-99.99,,2013-02-05 02:12:00,
2013-02-04 20:17:00,45.0,30.0,26.77,WSW,240,3.0,3.0,55,0.00,,,-99.99,,2013-02-05 02:17:00,
2013-02-04 20:22:00,45.0,30.0,26.78,North,351,9.0,12.0,55,0.00,,,-99.99,,2013-02-05 02:22:00,
2013-02-04 20:27:00,45.0,30.0,26.78,NNW,345,10.0,12.0,56,0.00,,,-99.99,,2013-02-05 02:27:00,
2013-02-04 20:32:00,45.0,30.0,26.78,NNW,334,7.0,8.0,55,0.00,,,-99.99,,2013-02-05 02:32:00,
2013-02-04 20:37:00,44.0,30.0,26.77,NNW,330,8.0,8.0,56,0.00,,,-99.99,,2013-02-05 02:37:00,
2013-02-04 20:42:00,42.0,28.0,26.77,NNW,333,7.0,7.0,59,0.00,,,-99.99,,2013-02-05 02:42:00,
2013-02-04 20:47:00,40.0,27.0,26.77,NNW,330,7.0,8.0,60,0.00,,,-99.99,,2013-02-05 02:47:00,
2013-02-04 20:52:00,39.0,27.0,26.77,NNW,336,7.0,8.0,62,0.00,,,-99.99,,2013-02-05 02:52:00,
2013-02-04 20:57:00,39.0,27.0,26.77,NNW,338,8.0,8.0,63,0.00,,,-99.99,,2013-02-05 02:57:00,
2013-02-04 21:02:00,39.0,27.0,26.77,NNW,341,7.0,8.0,63,0.00,,,-99.99,,2013-02-05 03:02:00,
2013-02-04 21:07:00,40.0,28.0,26.77,NNW,330,7.0,8.0,62,0.00,,,-99.99,,2013-02-05 03:07:00,
2013-02-04 21:12:00,40.0,28.0,26.78,NNW,329,9.0,9.0,62,0.00,,,-99.99,,2013-02-05 03:12:00,
2013-02-04 21:17:00,40.0,28.0,26.78,NW,323,9.0,10.0,62,0.00,,,-99.99,,2013-02-05 03:17:00,
2013-02-04 21:22:00,39.0,27.0,26.78,NW,323,9.0,10.0,63,0.00,,,-99.99,,2013-02-05 03:22:00,
2013-02-04 21:27:00,38.0,27.0,26.78,NW,319,9.0,9.0,65,0.00,,,-99.99,,2013-02-05 03:27:00,
2013-02-04 21:32:00,38.0,27.0,26.78,NW,324,9.0,9.0,65,0.00,,,-99.99,,2013-02-05 03:32:00,
2013-02-04 21:37:00,37.0,27.0,26.78,NW,326,9.0,10.0,66,0.00,,,-99.99,,2013-02-05 03:37:00,
2013-02-04 21:42:00,37.0,27.0,26.78,NNW,329,10.0,11.0,67,0.00,,,-99.99,,2013-02-05 03:42:00,
2013-02-04 21:47:00,37.0,27.0,26.79,NNW,333,11.0,12.0,67,0.00,,,-99.99,,2013-02-05 03:47:00,
2013-02-04 21:52:00,37.0,27.0,26.79,NNW,331,10.0,12.0,68,0.00,,,-99.99,,2013-02-05 03:52:00,
2013-02-04 21:57:00,36.0,27.0,26.79,NNW,330,11.0,12.0,69,0.00,,,-99.99,,2013-02-05 03:57:00,
2013-02-04 22:02:00,36.0,27.0,26.79,NNW,331,11.0,12.0,70,0.00,,,-99.99,,2013-02-05 04:02:00,
2013-02-04 22:07:00,36.0,27.0,26.78,NNW,329,11.0,11.0,70,0.00,,,-99.99,,2013-02-05 04:07:00,
2013-02-04 22:12:00,36.0,28.0,26.78,NNW,331,10.0,10.0,71,0.00,,,-99.99,,2013-02-05 04:12:00,
2013-02-04 22:17:00,35.0,27.0,26.79,NNW,329,11.0,12.0,71,0.00,,,-99.99,,2013-02-05 04:17:00,
2013-02-04 22:22:00,36.0,28.0,26.79,NNW,330,12.0,13.0,72,0.00,,,-99.99,,2013-02-05 04:22:00,
2013-02-04 22:27:00,36.0,28.0,26.80,NW,320,12.0,13.0,72,0.00,,,-99.99,,2013-02-05 04:27:00,
2013-02-04 22:32:00,36.0,28.0,26.80,NW,324,11.0,13.0,72,0.00,,,-99.99,,2013-02-05 04:32:00,
2013-02-04 22:37:00,36.0,28.0,26.79,NNW,330,10.0,11.0,72,0.00,,,-99.99,,2013-02-05 04:37:00,
2013-02-04 22:42:00,36.0,28.0,26.80,NNW,329,10.0,11.0,72,0.00,,,-99.99,,2013-02-05 04:42:00,
2013-02-04 22:47:00,36.0,28.0,26.79,NNW,327,11.0,13.0,73,0.00,,,-99.99,,2013-02-05 04:47:00,
2013-02-04 22:52:00,36.0,28.0,26.80,NNW,330,12.0,13.0,73,0.00,,,-99.99,,2013-02-05 04:52:00,
2013-02-04 22:57:00,36.0,28.0,26.80,NW,326,11.0,11.0,73,0.00,,,-99.99,,2013-02-05 04:57:00,
2013-02-04 23:02:00,36.0,28.0,26.80,NW,326,9.0,10.0,73,0.00,,,-99.99,,2013-02-05 05:02:00,
2013-02-04 23:07:00,35.0,27.0,26.80,NW,309,9.0,10.0,73,0.00,,,-99.99,,2013-02-05 05:07:00,
2013-02-04 23:12:00,35.0,28.0,26.80,NNW,330,9.0,10.0,74,0.00,,,-99.99,,2013-02-05 05:12:00,
2013-02-04 23:17:00,35.0,28.0,26.80,NNW,338,10.0,12.0,74,0.00,,,-99.99,,2013-02-05 05:17:00,
2013-02-04 23:22:00,35.0,28.0,26.81,NNW,334,10.0,11.0,74,0.00,,,-99.99,,2013-02-05 05:22:00,
2013-02-04 23:27:00,35.0,28.0,26.81,NNW,333,10.0,11.0,74,0.00,,,-99.99,,2013-02-05 05:27:00,
2013-02-04 23:32:00,35.0,28.0,26.80,NNW,341,11.0,12.0,75,0.00,,,-99.99,,2013-02-05 05:32:00,
2013-02-04 23:37:00,35.0,28.0,26.81,NNW,341,10.0,11.0,75,0.00,,,-99.99,,2013-02-05 05:37:00,
2013-02-04 23:42:00,35.0,28.0,26.81,NNW,343,10.0,11.0,76,0.00,,,-99.99,,2013-02-05 05:42:00,
2013-02-04 23:47:00,34.0,27.0,26.81,NNW,338,9.0,10.0,76,0.00,,,-99.99,,2013-02-05 05:47:00,
2013-02-04 23:52:00,34.0,27.0,26.81,NNW,338,8.0,9.0,76,0.00,,,-99.99,,2013-02-05 05:52:00,
2013-02-04 23:57:00,34.0,28.0,26.81,NW,323,9.0,10.0,77,0.00,,,-99.99,,2013-02-05 05:57:00,